Simultaneous Nadir Overpasses (SNOs) Predictions

Prediction of SNOs between FY3D and AQUA Satellite Orbit:

Table of predicted SNOs for the next 14.0 days since TLE Epoch: 1/2/2021
Index Date (FY3D) Time (FY3D) Lat,Lon (FY3D) SZA (FY3D ) Date (AQUA) Time (AQUA) Lat,Lon (AQUA) SZA (AQUA ) Distance(km) Time Diff (sec)
1 01/02/2021 20:04:10 49.44, 92.68 143.17 01/02/2021 20:05:09 49.50, 92.24 143.25 32.46 59
2 01/02/2021 20:55:56 -46.04,-101.43 34.33 01/02/2021 20:55:37 -46.05,-101.48 34.25 4.38 19
3 01/02/2021 21:30:58 75.06,-154.45 98.15 01/02/2021 21:29:45 75.46,-152.18 98.44 78.22 73
4 01/05/2021 12:20:24 49.85,-151.21 142.78 01/05/2021 12:21:30 49.96,-151.68 142.82 36.13 66
5 01/05/2021 13:12:17 -46.05, 14.50 34.38 01/05/2021 13:12:06 -46.05, 14.40 34.29 7.96 11
6 01/05/2021 13:52:26 79.48,-128.94 114.38 01/05/2021 13:51:13 79.87,-130.51 114.65 53.02 73
7 01/08/2021 05:28:37 -46.05, 130.43 34.49 01/08/2021 05:28:33 -46.10, 130.30 34.42 11.29 4
8 01/08/2021 06:13:43 65.12, -50.68 129.61 01/08/2021 06:12:30 65.18, -51.19 129.84 24.50 73
9 01/10/2021 21:44:55 -46.23,-113.57 34.77 01/10/2021 21:44:59 -46.25,-113.76 34.68 14.75 4
10 01/10/2021 22:34:06 51.47, 56.02 141.17 01/10/2021 22:32:54 51.47, 56.02 141.33 0.39 72
11 01/13/2021 14:01:09 -46.64, 2.52 35.29 01/13/2021 14:01:20 -46.70, 2.29 35.22 18.57 11



Historial Predications of SNOs between FY3D and AQUA
